Regional Weather Roundup
Issued by NWS

Home | Current Version | Previous Version | Graphics & Text | Print | Product List | Glossary On
Versions: 1 2 3 4 5 6 7 8 9 10 11 12 13 14 15 16 17 18 19 20 21 22 23 24 25 26 27 28 29 30 31 32 33 34 35 36 37 38 39 40 41 42 43 44 45 46 47 48 49 50
000
ASUS43 KLOT 031308
RWRIL

ILLINOIS REGIONAL WEATHER ROUNDUP
NATIONAL WEATHER SERVICE CHICAGO/ROMEOVILLE IL
700 AM CST SAT DEC 03 2016

NOTE: "FAIR" INDICATES FEW OR NO CLOUDS BELOW 12,000 FEET WITH NO
SIGNIFICANT WEATHER AND/OR OBSTRUCTIONS TO VISIBILITY.

* THESE STATIONS ARE NOT UNDER NWS QUALITY CONTROL. THEY ALSO MAY NOT
  REPORT WEATHER SUCH AS PRECIPITATION OR FOG.

ILZ001-002-007-009-015-016-024-031400-
NORTHWEST ILLINOIS

CITY           SKY/WX    TMP DP  RH WIND       PRES   REMARKS
MOLINE         CLOUDY    34  23  64 NW10      30.36S WCI  26
STERLING*      CLOUDY    31  25  78 NW10      30.36F WCI  22
SAVANNA*       CLOUDY    32  24  72 N5        30.35F WCI  27
$$

ILZ003-004-008-010-011-017-018-031400-
NORTH CENTRAL ILLINOIS

CITY           SKY/WX    TMP DP  RH WIND       PRES   REMARKS
ROCKFORD       CLOUDY    32  23  69 W6        30.37S WCI  26
FREEPORT*      CLOUDY    30  23  75 W8        30.37S WCI  23
ROCHELLE*      CLOUDY    31  25  78 W12       30.36S WCI  22
DE KALB*       CLOUDY    31  24  75 NW7       30.35S WCI  24
$$

ILZ005-006-012>014-019>023-031400-
NORTHEAST ILLINOIS

CITY           SKY/WX    TMP DP  RH WIND       PRES   REMARKS
CHICAGO-OHARE  CLOUDY    32  22  66 W9        30.35R WCI  24
CHICAGO-MIDWAY CLOUDY    33  20  58 NW10      30.35S WCI  25
AURORA         CLOUDY    33  25  72 NW13      30.36S WCI  24
LANSING*       CLOUDY    32  26  76 W6        30.36S WCI  27
JOLIET*        CLOUDY    34  26  72 NW3       30.36S
WAUKEGAN       CLOUDY    32  23  69 VRB3      30.34S
DUPAGE AIRPORT CLOUDY    32  22  66 NW9       30.35R WCI  24
KANKAKEE*      CLOUDY    33  26  73 W5        30.37R WCI  29
WHEELING       CLOUDY    32  21  64 W8        30.36S WCI  25
MORRIS*        CLOUDY    33  27  80 W7        30.35S WCI  26
ROMEOVILLE*    CLOUDY    32  28  84 NW5       30.35S WCI  27
NORTHERLY ISL    N/A     33  22  64 W8          N/A  WCI  26
$$

LMZ740>746-031400-
SOUTHERN LAKE MICHIGAN

STATION/POSITION SKY/WX   TEMP    WIND        PRES    VSBY  WAVE
                          AIR SEA DIR/SP/G                  HT/PER
                          (F)     (DEG/KT/KT) (MB)    (MI)  (FT/S)
SOUTHERN BUOY              36 49  260/ 10/ 16 1027.3R         1/ 5
HARRISON CRIB              34     290/ 11/ 14   N/A
BURNHAM HARBOR             33     250/  3/ 10   N/A
CALUMET HARBOR             32     290/  3/  6 1027.2R
BURNS HARBOR               35     260/ 11/ 14 1028.1S
MICHIGAN CITY              35     240/ 13/ 16   N/A
$$

ILZ025>027-034>036-040-047-049-050-058-095>099-031400-
WEST-CENTRAL ILLINOIS

CITY           SKY/WX    TMP DP  RH WIND       PRES   REMARKS
QUINCY         CLOUDY    30  29  96 E5        30.34F WCI  25
GALESBURG*     CLOUDY    32  28  84 N3        30.35F
MACOMB*        PTCLDY    31  30  95 CALM      30.38S
JACKSONVILLE*  CLOUDY    30  28  92 NE3       30.36S
PITTSFIELD*    MOCLDY    29  28  95 CALM      30.36S
$$

ILZ028>032-037-038-041>044-048-051>054-059>061-031400-
CENTRAL ILLINOIS

CITY           SKY/WX    TMP DP  RH WIND       PRES   REMARKS
PONTIAC        CLOUDY    33  30  87 NW7       30.38S WCI  27
BLOOMINGTON    MOCLDY    31  26  82 N8        30.36F WCI  23
DECATUR        CLOUDY    35  28  75 N5        30.38R WCI  31
PEORIA         CLOUDY    34  26  72 N6        30.37F WCI  29
LACON*         CLOUDY    32  26  77 NW5       30.37F WCI  27
LINCOLN*       CLOUDY    32  29  90 N3        30.38S
SPRINGFIELD    PTCLDY    33  28  81 NE5       30.37S WCI  29
TAYLORVILLE    CLOUDY    32  31  96 NE3       30.37S
$$

ILZ033-039-045-046-055>057-062-063-031400-
EAST-CENTRAL ILLINOIS

CITY           SKY/WX    TMP DP  RH WIND       PRES   REMARKS
CHAMPAIGN      MOCLDY    34  28  79 N8        30.37R WCI  27
RANTOUL*       PTCLDY    33  29  82 NW7       30.37R WCI  27
MATTOON        CLOUDY    35  30  82 CALM      30.36R
PARIS*         CLOUDY    32  31  96 CALM      30.38R
$$

ILZ079-100>102-031400-
SOUTHWEST ILLINOIS

CITY           SKY/WX    TMP DP  RH WIND       PRES   REMARKS
ALTON          PTCLDY    27  27 100 CALM      30.37S
BELLEVILLE     CLOUDY    28  28 100 CALM      30.36S
CAHOKIA*       CLOUDY    29  26  89 CALM      30.37S
SPARTA*        PTCLDY    30  29  96 CALM      30.38S FOG
$$

ILZ064>066-069>071-074>076-080>082-084>086-088>090-092>094-031400-
SOUTH-CENTRAL ILLINOIS

CITY           SKY/WX    TMP DP  RH WIND       PRES   REMARKS
CARBONDALE     MOCLDY    28  28 100 CALM      30.39R FOG
CAIRO*         CLOUDY    36  33  88 NE5       30.37S WCI  32
EFFINGHAM*     CLOUDY    34  34 100 CALM      30.39S
CENTRALIA*     PTCLDY    30  30 100 CALM      30.37S FOG
SALEM*         PTCLDY    31  29  93 CALM      30.38R FOG
METROPOLIS*    CLOUDY    33  31  96 CALM      30.39S
$$

ILZ067-068-072-073-078-083-087-091-031400-
SOUTHEAST ILLINOIS

CITY           SKY/WX    TMP DP  RH WIND       PRES   REMARKS
LAWRENCEVILLE  CLOUDY    38  32  79 CALM      30.38R
FLORA*         PTCLDY    30  28  94 CALM      30.39R
FAIRFIELD*     MOCLDY    30  30  99 CALM      30.39R FOG
HARRISBURG*    PTCLDY    30  30  99 CALM      30.39S FOG
ROBINSON*      CLOUDY    36  31  83 N6        30.39R WCI  31
CARMI*         PTCLDY    29  29  99 CALM      30.39R FOG
$$

ABBREVIATIONS USED IN REMARKS
   TC - TEMPERATURE IN CELSIUS
  WCI - WIND CHILL INDEX
   HX - HEAT INDEX
  VSB - VISIBILITY
$$





USA.gov is the U.S. government's official web portal to all federal, state and local government web resources and services.